Location: Unspecified
(49.2170°N, 0.0000°E)
Time: 15:23:55
(UTC+00:00)

Vanguard 1 - Pass Details

Date: 24 June 2021
Orbit: 651 x 3832 km, 34.2° (Epoch: 23 July)

Event Time Altitude Azimuth Distance (km) Brightness Sun altitude
Rises 21:04:04 0° 244° (WSW) 7,768 14.8 -7.2°
Reaches altitude 10° 21:09:27 10° 239° (WSW) 6,881 14.5 -7.8°
Maximum altitude 21:31:12 50° 174° (S) 4,120 12.8 -9.9°
Drops below altitude 10° 21:47:27 10° 106° (ESE) 5,300 13.4 -11.4°
Sets 21:50:57 0° 101° (E) 5,952 13.7 -11.7°
